Home   Weather   Hadera   Past weeks

Flag for Israel Past Weather in Hadera, Israel — Yesterday and Last 2 Weeks

Now
72 °F

Sunny.


Feels Like: 74 °F
Forecast: 61 / 79 °F
Wind: 9 mph from Northwest

Location: Dov Airport

Current Time: Apr 30, 2017 at 6:06:17 pm

Latest Report: Apr 30, 2017 at 4:50 pm


Visibility: 10 mi

Pressure: 29.77 "Hg

Humidity: 73%

Dew Point: 63 °F

Location of HaderaLocation

Past Weather in Hadera — Graph

°F

Hadera Temperature Yesterday

Maximum temperature yesterday: 72 °F (at 1:50 pm)
Minimum temperature yesterday: 59 °F (at 6:00 am)
Average temperature yesterday: 68 °F

High & Low Weather Summary for the Past Weeks

 TemperatureHumidityPressure
High88 °F (Apr 22, 2:50 pm)94% (Apr 30, 5:30 am)30.12 "Hg (Apr 30, 5:30 am)
Low57 °F (Apr 17, 6:00 am)22% (Apr 22, 10:50 am)29.65 "Hg (Apr 22, 4:50 pm)
Average68 °F66%29.98 "Hg
* Reported Apr 15 4:50 pm — Apr 30 4:50 pm, Hadera, Weather by CustomWeather, © 2017

Note: Actual official high and low records may vary slightly from our data, if they occured in-between our weather recording intervals... More about our weather records

Advertising

Hadera Weather History for the Previous 24 Hours

Scroll right to see more
 ConditionsComfort  
Time TempWeatherWind HumidityBarometerVisibility
4:50 pm
Sun, Apr 30
72 °FSunny.9 mph73%29.77 "Hg10 mi
3:50 pm72 °FSunny.10 mph73%29.77 "Hg10 mi
2:50 pm72 °FSunny.14 mph73%29.80 "Hg10 mi
1:50 pm72 °FSunny.13 mph73%29.80 "Hg10 mi
12:50 pm72 °FSunny.12 mph73%29.83 "Hg10 mi
11:50 am72 °FSunny.12 mph69%29.83 "Hg10 mi
10:50 am72 °FSunny.10 mph73%29.86 "Hg10 mi
9:50 am70 °FSunny.9 mph73%29.86 "Hg10 mi
8:50 am68 °FScattered clouds.7 mph78%29.86 "HgN/A
7:50 am66 °FScattered clouds.5 mph83%29.86 "HgN/A
6:50 am61 °FScattered clouds.5 mph94%29.86 "Hg4 mi
6:25 am63 °FFog.3 mph94%29.86 "Hg3 mi
5:50 am63 °FPassing clouds.7 mph94%29.83 "Hg4 mi
5:30 am63 °FFog.6 mph94%29.86 "Hg3 mi
10:50 pm
Sat, Apr 29
64 °FClear.6 mph83%29.89 "Hg10 mi
9:50 pm66 °FClear.5 mph78%29.89 "Hg10 mi
8:50 pm66 °FClear.5 mph78%29.89 "Hg10 mi
7:50 pm66 °FClear.6 mph83%29.89 "Hg10 mi
6:50 pm70 °FSunny.10 mph73%29.86 "Hg10 mi
Weather by CustomWeather, © 2017

See weather overviewHow to use our weather pages